Year,Month,Day,Hour,Minute,Value (Times are PST for windgust in km/hr)
2013,02,27,00,00,1.60
2013,02,27,00,01,1.60
2013,02,27,00,02,1.60
2013,02,27,00,03,1.60
2013,02,27,00,04,3.20
2013,02,27,00,05,3.20
2013,02,27,00,06,3.20
2013,02,27,00,07,3.20
2013,02,27,00,08,1.60
2013,02,27,00,09,3.20
2013,02,27,00,10,4.80
2013,02,27,00,11,4.80
2013,02,27,00,12,3.20
2013,02,27,00,13,4.80
2013,02,27,00,14,6.40
2013,02,27,00,15,6.40
2013,02,27,00,16,6.40
2013,02,27,00,17,3.20
2013,02,27,00,18,3.20
2013,02,27,00,19,3.20
2013,02,27,00,20,3.20
2013,02,27,00,21,1.60
2013,02,27,00,22,1.60
2013,02,27,00,23,1.60
2013,02,27,00,24,3.20
2013,02,27,00,25,4.80
2013,02,27,00,26,4.80
2013,02,27,00,27,3.20
2013,02,27,00,28,3.20
2013,02,27,00,29,3.20
2013,02,27,00,30,3.20
2013,02,27,00,31,3.20
2013,02,27,00,32,3.20
2013,02,27,00,33,3.20
2013,02,27,00,34,1.60
2013,02,27,00,35,1.60
2013,02,27,00,36,3.20
2013,02,27,00,37,3.20
2013,02,27,00,38,4.80
2013,02,27,00,39,3.20
2013,02,27,00,40,3.20
2013,02,27,00,41,3.20
2013,02,27,00,42,3.20
2013,02,27,00,43,4.80
2013,02,27,00,44,4.80
2013,02,27,00,45,3.20
2013,02,27,00,46,3.20
2013,02,27,00,47,4.80
2013,02,27,00,48,4.80
2013,02,27,00,49,4.80
2013,02,27,00,50,4.80
2013,02,27,00,51,4.80
2013,02,27,00,52,6.40
2013,02,27,00,53,4.80
2013,02,27,00,54,4.80
2013,02,27,00,55,6.40
2013,02,27,00,56,19.30
2013,02,27,00,57,8.10
2013,02,27,00,58,11.30
2013,02,27,00,59,9.60
2013,02,27,01,00,11.30
2013,02,27,01,01,17.70
2013,02,27,01,02,16.10
2013,02,27,01,03,9.60
2013,02,27,01,04,9.60
2013,02,27,01,05,12.90
2013,02,27,01,06,11.30
2013,02,27,01,07,11.30
2013,02,27,01,08,14.50
2013,02,27,01,09,8.10
2013,02,27,01,10,9.60
2013,02,27,01,11,12.90
2013,02,27,01,12,8.10
2013,02,27,01,13,9.60
2013,02,27,01,14,9.60
2013,02,27,01,15,12.90
2013,02,27,01,16,6.40
2013,02,27,01,17,4.80
2013,02,27,01,18,6.40
2013,02,27,01,19,4.80
2013,02,27,01,20,3.20
2013,02,27,01,21,3.20
2013,02,27,01,22,3.20
2013,02,27,01,23,1.60
2013,02,27,01,24,1.60
2013,02,27,01,25,1.60
2013,02,27,01,26,1.60
2013,02,27,01,27,1.60
2013,02,27,01,28,3.20
2013,02,27,01,29,4.80
2013,02,27,01,30,3.20
2013,02,27,01,31,3.20
2013,02,27,01,32,1.60
2013,02,27,01,33,1.60
2013,02,27,01,34,1.60
2013,02,27,01,38,1.60
2013,02,27,01,39,1.60
2013,02,27,01,40,1.60
2013,02,27,01,41,1.60
2013,02,27,01,42,1.60
2013,02,27,01,43,1.60
2013,02,27,01,44,1.60
2013,02,27,01,46,1.60
2013,02,27,01,47,3.20
2013,02,27,01,48,1.60
2013,02,27,01,49,1.60
2013,02,27,01,50,1.60
2013,02,27,01,51,1.60
2013,02,27,01,52,1.60
2013,02,27,01,53,1.60
2013,02,27,01,54,3.20
2013,02,27,01,55,3.20
2013,02,27,01,56,1.60
2013,02,27,01,57,1.60
2013,02,27,01,59,1.60
2013,02,27,02,00,1.60
2013,02,27,02,01,1.60
2013,02,27,02,02,1.60
2013,02,27,02,03,1.60
2013,02,27,02,04,3.20
2013,02,27,02,05,4.80
2013,02,27,02,06,4.80
2013,02,27,02,07,3.20
2013,02,27,02,08,3.20
2013,02,27,02,09,3.20
2013,02,27,02,10,3.20
2013,02,27,02,11,1.60
2013,02,27,02,12,3.20
2013,02,27,02,13,3.20
2013,02,27,02,14,3.20
2013,02,27,02,15,3.20
2013,02,27,02,16,3.20
2013,02,27,02,17,1.60
2013,02,27,02,18,3.20
2013,02,27,02,19,1.60
2013,02,27,02,20,1.60
2013,02,27,02,21,1.60
2013,02,27,02,22,1.60
2013,02,27,02,23,1.60
2013,02,27,02,24,1.60
2013,02,27,02,25,1.60
2013,02,27,02,26,1.60
2013,02,27,02,27,1.60
2013,02,27,02,28,1.60
2013,02,27,02,29,1.60
2013,02,27,02,32,1.60
2013,02,27,02,33,1.60
2013,02,27,02,34,1.60
2013,02,27,02,35,3.20
2013,02,27,02,36,1.60
2013,02,27,02,37,1.60
2013,02,27,02,38,1.60
2013,02,27,02,39,1.60
2013,02,27,02,40,1.60
2013,02,27,02,42,1.60
2013,02,27,02,43,1.60
2013,02,27,02,45,1.60
2013,02,27,02,46,1.60
2013,02,27,02,47,1.60
2013,02,27,02,48,1.60
2013,02,27,02,50,1.60
2013,02,27,02,51,3.20
2013,02,27,02,52,3.20
2013,02,27,02,53,3.20
2013,02,27,02,54,3.20
2013,02,27,02,55,3.20
2013,02,27,02,56,3.20
2013,02,27,02,57,3.20
2013,02,27,02,58,3.20
2013,02,27,02,59,4.80
2013,02,27,03,00,4.80
2013,02,27,03,01,3.20
2013,02,27,03,02,3.20
2013,02,27,03,03,3.20
2013,02,27,03,04,4.80
2013,02,27,03,05,4.80
2013,02,27,03,06,3.20
2013,02,27,03,07,1.60
2013,02,27,03,08,1.60
2013,02,27,03,09,3.20
2013,02,27,03,10,1.60
2013,02,27,03,11,1.60
2013,02,27,03,12,3.20
2013,02,27,03,13,3.20
2013,02,27,03,14,3.20
2013,02,27,03,15,3.20
2013,02,27,03,16,1.60
2013,02,27,03,17,3.20
2013,02,27,03,18,1.60
2013,02,27,03,19,1.60
2013,02,27,03,20,1.60
2013,02,27,03,21,1.60
2013,02,27,03,22,1.60
2013,02,27,03,23,1.60
2013,02,27,03,24,1.60
2013,02,27,03,25,1.60
2013,02,27,03,26,1.60
2013,02,27,03,27,1.60
2013,02,27,03,28,3.20
2013,02,27,03,29,3.20
2013,02,27,03,30,3.20
2013,02,27,03,31,3.20
2013,02,27,03,32,3.20
2013,02,27,03,33,3.20
2013,02,27,03,34,3.20
2013,02,27,03,35,3.20
2013,02,27,03,36,3.20
2013,02,27,03,37,1.60
2013,02,27,03,38,1.60
2013,02,27,03,39,3.20
2013,02,27,03,40,3.20
2013,02,27,03,41,3.20
2013,02,27,03,42,3.20
2013,02,27,03,43,1.60
2013,02,27,03,44,1.60
2013,02,27,03,45,1.60
2013,02,27,03,47,1.60
2013,02,27,03,48,3.20
2013,02,27,03,49,3.20
2013,02,27,03,50,3.20
2013,02,27,03,51,3.20
2013,02,27,03,52,3.20
2013,02,27,03,53,3.20
2013,02,27,03,54,3.20
2013,02,27,03,55,3.20
2013,02,27,03,56,3.20
2013,02,27,03,57,3.20
2013,02,27,03,58,1.60
2013,02,27,03,59,1.60
2013,02,27,04,00,1.60
2013,02,27,04,04,1.60
2013,02,27,04,05,1.60
2013,02,27,04,06,1.60
2013,02,27,04,07,1.60
2013,02,27,04,08,1.60
2013,02,27,04,10,1.60
2013,02,27,04,11,1.60
2013,02,27,04,13,1.60
2013,02,27,04,14,1.60
2013,02,27,04,15,1.60
2013,02,27,04,17,1.60
2013,02,27,04,21,1.60
2013,02,27,04,22,1.60
2013,02,27,04,23,1.60
2013,02,27,04,24,1.60
2013,02,27,04,25,1.60
2013,02,27,04,32,1.60
2013,02,27,04,35,1.60
2013,02,27,04,36,1.60
2013,02,27,04,37,3.20
2013,02,27,04,38,4.80
2013,02,27,04,39,4.80
2013,02,27,04,40,3.20
2013,02,27,04,41,3.20
2013,02,27,04,42,3.20
2013,02,27,04,43,3.20
2013,02,27,04,44,1.60
2013,02,27,04,45,3.20
2013,02,27,04,46,1.60
2013,02,27,04,47,1.60
2013,02,27,04,49,1.60
2013,02,27,04,50,1.60
2013,02,27,04,51,3.20
2013,02,27,04,52,3.20
2013,02,27,04,53,3.20
2013,02,27,04,54,4.80
2013,02,27,04,55,3.20
2013,02,27,04,56,1.60
2013,02,27,04,58,1.60
2013,02,27,04,59,1.60
2013,02,27,05,00,1.60
2013,02,27,05,01,1.60
2013,02,27,05,02,1.60
2013,02,27,05,03,1.60
2013,02,27,05,04,1.60
2013,02,27,05,05,1.60
2013,02,27,05,06,1.60
2013,02,27,05,07,1.60
2013,02,27,05,08,1.60
2013,02,27,05,11,1.60
2013,02,27,05,12,1.60
2013,02,27,05,13,1.60
2013,02,27,05,14,1.60
2013,02,27,05,15,1.60
2013,02,27,05,16,1.60
2013,02,27,05,17,1.60
2013,02,27,05,20,1.60
2013,02,27,05,21,1.60
2013,02,27,05,45,1.60
2013,02,27,05,46,1.60
2013,02,27,05,47,1.60
2013,02,27,05,48,1.60
2013,02,27,05,50,1.60
2013,02,27,05,51,1.60
2013,02,27,05,52,1.60
2013,02,27,05,53,1.60
2013,02,27,05,54,1.60
2013,02,27,05,55,1.60
2013,02,27,05,57,1.60
2013,02,27,05,58,1.60
2013,02,27,05,59,1.60
2013,02,27,06,01,1.60
2013,02,27,06,02,1.60
2013,02,27,06,03,3.20
2013,02,27,06,04,4.80
2013,02,27,06,05,1.60
2013,02,27,06,06,3.20
2013,02,27,06,07,1.60
2013,02,27,06,09,1.60
2013,02,27,06,10,1.60
2013,02,27,06,12,1.60
2013,02,27,06,13,3.20
2013,02,27,06,14,1.60
2013,02,27,06,15,1.60
2013,02,27,06,16,1.60
2013,02,27,06,17,3.20
2013,02,27,06,18,4.80
2013,02,27,06,19,3.20
2013,02,27,06,20,3.20
2013,02,27,06,21,3.20
2013,02,27,06,22,3.20
2013,02,27,06,23,3.20
2013,02,27,06,24,1.60
2013,02,27,06,25,1.60
2013,02,27,06,26,3.20
2013,02,27,06,27,3.20
2013,02,27,06,28,1.60
2013,02,27,06,29,3.20
2013,02,27,06,30,3.20
2013,02,27,06,31,1.60
2013,02,27,06,32,3.20
2013,02,27,06,33,3.20
2013,02,27,06,34,1.60
2013,02,27,06,35,3.20
2013,02,27,06,36,3.20
2013,02,27,06,37,1.60
2013,02,27,06,38,3.20
2013,02,27,06,39,1.60
2013,02,27,06,40,3.20
2013,02,27,06,41,3.20
2013,02,27,06,42,3.20
2013,02,27,06,43,1.60
2013,02,27,06,44,1.60
2013,02,27,06,45,1.60
2013,02,27,06,46,1.60
2013,02,27,06,47,1.60
2013,02,27,06,48,1.60
2013,02,27,06,49,1.60
2013,02,27,06,50,3.20
2013,02,27,06,51,3.20
2013,02,27,06,52,3.20
2013,02,27,06,53,3.20
2013,02,27,06,54,3.20
2013,02,27,06,55,3.20
2013,02,27,06,56,3.20
2013,02,27,06,57,1.60
2013,02,27,06,58,1.60
2013,02,27,06,59,1.60
2013,02,27,07,00,1.60
2013,02,27,07,05,1.60
2013,02,27,07,06,1.60
2013,02,27,07,07,1.60
2013,02,27,07,13,1.60
2013,02,27,07,14,1.60
2013,02,27,07,15,1.60
2013,02,27,07,16,1.60
2013,02,27,07,17,1.60
2013,02,27,07,18,1.60
2013,02,27,07,19,1.60
2013,02,27,07,20,1.60
2013,02,27,07,21,3.20
2013,02,27,07,22,3.20
2013,02,27,07,23,3.20
2013,02,27,07,24,1.60
2013,02,27,07,25,1.60
2013,02,27,07,26,1.60
2013,02,27,07,27,1.60
2013,02,27,07,28,1.60
2013,02,27,07,29,1.60
2013,02,27,07,30,1.60
2013,02,27,07,31,1.60
2013,02,27,07,32,1.60
2013,02,27,07,33,1.60
2013,02,27,07,34,1.60
2013,02,27,07,36,1.60
2013,02,27,07,38,1.60
2013,02,27,07,39,1.60
2013,02,27,07,40,1.60
2013,02,27,07,41,1.60
2013,02,27,07,42,1.60
2013,02,27,07,43,1.60
2013,02,27,07,44,3.20
2013,02,27,07,45,3.20
2013,02,27,07,46,1.60
2013,02,27,07,47,3.20
2013,02,27,07,48,3.20
2013,02,27,07,49,3.20
2013,02,27,07,50,1.60
2013,02,27,07,51,1.60
2013,02,27,07,52,1.60
2013,02,27,07,53,1.60
2013,02,27,07,54,1.60
2013,02,27,07,55,3.20
2013,02,27,07,56,3.20
2013,02,27,07,57,1.60
2013,02,27,07,58,1.60
2013,02,27,07,59,1.60
2013,02,27,08,00,3.20
2013,02,27,08,01,3.20
2013,02,27,08,02,1.60
2013,02,27,08,03,1.60
2013,02,27,08,04,3.20
2013,02,27,08,05,1.60
2013,02,27,08,06,3.20
2013,02,27,08,07,1.60
2013,02,27,08,08,1.60
2013,02,27,08,09,1.60
2013,02,27,08,14,1.60
2013,02,27,08,15,1.60
2013,02,27,08,16,1.60
2013,02,27,08,17,1.60
2013,02,27,08,18,1.60
2013,02,27,08,19,1.60
2013,02,27,08,20,1.60
2013,02,27,08,21,1.60
2013,02,27,08,22,1.60
2013,02,27,08,23,1.60
2013,02,27,08,24,1.60
2013,02,27,08,25,3.20
2013,02,27,08,26,3.20
2013,02,27,08,27,3.20
2013,02,27,08,28,3.20
2013,02,27,08,29,3.20
2013,02,27,08,30,3.20
2013,02,27,08,31,1.60
2013,02,27,08,32,3.20
2013,02,27,08,33,1.60
2013,02,27,08,34,3.20
2013,02,27,08,35,1.60
2013,02,27,08,36,1.60
2013,02,27,08,37,1.60
2013,02,27,08,38,4.80
2013,02,27,08,39,3.20
2013,02,27,08,40,1.60
2013,02,27,08,41,1.60
2013,02,27,08,42,1.60
2013,02,27,08,43,1.60
2013,02,27,08,44,1.60
2013,02,27,08,45,1.60
2013,02,27,08,46,1.60
2013,02,27,08,47,1.60
2013,02,27,08,48,1.60
2013,02,27,08,49,3.20
2013,02,27,08,50,1.60
2013,02,27,08,51,1.60
2013,02,27,08,52,1.60
2013,02,27,08,53,3.20
2013,02,27,08,54,3.20
2013,02,27,08,55,3.20
2013,02,27,08,56,1.60
2013,02,27,08,58,1.60
2013,02,27,08,59,3.20
2013,02,27,09,00,3.20
2013,02,27,09,01,3.20
2013,02,27,09,02,1.60
2013,02,27,09,03,1.60
2013,02,27,09,04,1.60
2013,02,27,09,05,1.60
2013,02,27,09,06,1.60
2013,02,27,09,07,1.60
2013,02,27,09,08,3.20
2013,02,27,09,09,1.60
2013,02,27,09,10,1.60
2013,02,27,09,11,1.60
2013,02,27,09,12,1.60
2013,02,27,09,13,1.60
2013,02,27,09,14,1.60
2013,02,27,09,15,1.60
2013,02,27,09,16,3.20
2013,02,27,09,17,3.20
2013,02,27,09,18,3.20
2013,02,27,09,19,3.20
2013,02,27,09,20,1.60
2013,02,27,09,21,1.60
2013,02,27,09,22,3.20
2013,02,27,09,23,1.60
2013,02,27,09,24,1.60
2013,02,27,09,25,1.60
2013,02,27,09,26,3.20
2013,02,27,09,27,1.60
2013,02,27,09,28,3.20
2013,02,27,09,29,3.20
2013,02,27,09,30,3.20
2013,02,27,09,31,1.60
2013,02,27,09,32,1.60
2013,02,27,09,33,3.20
2013,02,27,09,34,3.20
2013,02,27,09,35,3.20
2013,02,27,09,36,1.60
2013,02,27,09,37,3.20
2013,02,27,09,38,1.60
2013,02,27,09,39,1.60
2013,02,27,09,40,1.60
2013,02,27,09,41,1.60
2013,02,27,09,42,1.60
2013,02,27,09,43,3.20
2013,02,27,09,44,3.20
2013,02,27,09,45,3.20
2013,02,27,09,46,1.60
2013,02,27,09,48,3.20
2013,02,27,09,49,1.60
2013,02,27,09,50,3.20
2013,02,27,09,51,3.20
2013,02,27,09,52,1.60
2013,02,27,09,53,4.80
2013,02,27,09,54,3.20
2013,02,27,09,55,3.20
2013,02,27,09,56,4.80
2013,02,27,09,57,3.20
2013,02,27,09,58,3.20
2013,02,27,09,59,3.20
2013,02,27,10,00,3.20
2013,02,27,10,01,3.20
2013,02,27,10,02,4.80
2013,02,27,10,03,4.80
2013,02,27,10,04,4.80
2013,02,27,10,05,4.80
2013,02,27,10,06,4.80
2013,02,27,10,07,3.20
2013,02,27,10,08,3.20
2013,02,27,10,09,1.60
2013,02,27,10,10,3.20
2013,02,27,10,11,3.20
2013,02,27,10,12,3.20
2013,02,27,10,13,1.60
2013,02,27,10,14,1.60
2013,02,27,10,15,1.60
2013,02,27,10,16,1.60
2013,02,27,10,17,1.60
2013,02,27,10,18,3.20
2013,02,27,10,19,3.20
2013,02,27,10,20,3.20
2013,02,27,10,21,3.20
2013,02,27,10,22,3.20
2013,02,27,10,23,4.80
2013,02,27,10,24,3.20
2013,02,27,10,25,3.20
2013,02,27,10,26,3.20
2013,02,27,10,27,3.20
2013,02,27,10,28,1.60
2013,02,27,10,29,4.80
2013,02,27,10,30,4.80
2013,02,27,10,31,4.80
2013,02,27,10,32,4.80
2013,02,27,10,33,4.80
2013,02,27,10,34,3.20
2013,02,27,10,35,3.20
2013,02,27,10,36,6.40
2013,02,27,10,37,6.40
2013,02,27,10,38,6.40
2013,02,27,10,39,6.40
2013,02,27,10,40,8.10
2013,02,27,10,41,6.40
2013,02,27,10,42,6.40
2013,02,27,10,43,6.40
2013,02,27,10,44,6.40
2013,02,27,10,45,4.80
2013,02,27,10,46,3.20
2013,02,27,10,47,6.40
2013,02,27,10,48,6.40
2013,02,27,10,49,6.40
2013,02,27,10,50,9.60
2013,02,27,10,51,9.60
2013,02,27,10,52,9.60
2013,02,27,10,53,8.10
2013,02,27,10,54,6.40
2013,02,27,10,55,6.40
2013,02,27,10,56,4.80
2013,02,27,10,57,6.40
2013,02,27,10,58,4.80
2013,02,27,10,59,4.80
2013,02,27,11,00,4.80
2013,02,27,11,01,6.40
2013,02,27,11,02,8.10
2013,02,27,11,03,9.60
2013,02,27,11,04,8.10
2013,02,27,11,05,8.10
2013,02,27,11,06,4.80
2013,02,27,11,07,8.10
2013,02,27,11,08,9.60
2013,02,27,11,09,8.10
2013,02,27,11,10,8.10
2013,02,27,11,11,6.40
2013,02,27,11,12,8.10
2013,02,27,11,13,6.40
2013,02,27,11,14,8.10
2013,02,27,11,15,8.10
2013,02,27,11,16,9.60
2013,02,27,11,17,8.10
2013,02,27,11,18,8.10
2013,02,27,11,19,6.40
2013,02,27,11,20,6.40
2013,02,27,11,21,8.10
2013,02,27,11,22,6.40
2013,02,27,11,23,6.40
2013,02,27,11,24,6.40
2013,02,27,11,25,6.40
2013,02,27,11,26,3.20
2013,02,27,11,27,3.20
2013,02,27,11,28,8.10
2013,02,27,11,29,4.80
2013,02,27,11,30,8.10
2013,02,27,11,31,8.10
2013,02,27,11,32,4.80
2013,02,27,11,33,8.10
2013,02,27,11,34,8.10
2013,02,27,11,35,9.60
2013,02,27,11,36,6.40
2013,02,27,11,37,4.80
2013,02,27,11,38,4.80
2013,02,27,11,39,6.40
2013,02,27,11,40,4.80
2013,02,27,11,41,8.10
2013,02,27,11,42,3.20
2013,02,27,11,43,3.20
2013,02,27,11,44,8.10
2013,02,27,11,45,8.10
2013,02,27,11,46,8.10
2013,02,27,11,47,8.10
2013,02,27,11,48,8.10
2013,02,27,11,49,4.80
2013,02,27,11,50,4.80
2013,02,27,11,51,4.80
2013,02,27,11,52,6.40
2013,02,27,11,53,4.80
2013,02,27,11,54,3.20
2013,02,27,11,55,6.40
2013,02,27,11,56,6.40
2013,02,27,11,57,6.40
2013,02,27,11,58,4.80
2013,02,27,11,59,4.80
2013,02,27,12,00,6.40
2013,02,27,12,01,8.10
2013,02,27,12,02,4.80
2013,02,27,12,03,3.20
2013,02,27,12,04,3.20
2013,02,27,12,05,8.10
2013,02,27,12,06,4.80
2013,02,27,12,07,8.10
2013,02,27,12,08,9.60
2013,02,27,12,09,9.60
2013,02,27,12,10,11.30
2013,02,27,12,11,8.10
2013,02,27,12,12,3.20
2013,02,27,12,13,9.60
2013,02,27,12,14,9.60
2013,02,27,12,15,6.40
2013,02,27,12,16,8.10
2013,02,27,12,17,4.80
2013,02,27,12,18,8.10
2013,02,27,12,19,9.60
2013,02,27,12,20,14.50
2013,02,27,12,21,9.60
2013,02,27,12,22,6.40
2013,02,27,12,23,6.40
2013,02,27,12,24,9.60
2013,02,27,12,25,8.10
2013,02,27,12,26,9.60
2013,02,27,12,27,9.60
2013,02,27,12,28,9.60
2013,02,27,12,29,16.10
2013,02,27,12,30,11.30
2013,02,27,12,31,8.10
2013,02,27,12,32,8.10
2013,02,27,12,33,6.40
2013,02,27,12,34,6.40
2013,02,27,12,35,4.80
2013,02,27,12,36,6.40
2013,02,27,12,37,9.60
2013,02,27,12,38,14.50
2013,02,27,12,39,8.10
2013,02,27,12,40,11.30
2013,02,27,12,41,8.10
2013,02,27,12,42,8.10
2013,02,27,12,43,12.90
2013,02,27,12,44,9.60
2013,02,27,12,45,11.30
2013,02,27,12,46,9.60
2013,02,27,12,47,11.30
2013,02,27,12,48,16.10
2013,02,27,12,49,16.10
2013,02,27,12,50,17.70
2013,02,27,12,51,16.10
2013,02,27,12,52,9.60
2013,02,27,12,53,9.60
2013,02,27,12,54,14.50
2013,02,27,12,55,8.10
2013,02,27,12,56,6.40
2013,02,27,12,57,9.60
2013,02,27,12,58,14.50
2013,02,27,12,59,11.30
2013,02,27,13,00,9.60
2013,02,27,13,01,9.60
2013,02,27,13,02,11.30
2013,02,27,13,03,9.60
2013,02,27,13,04,8.10
2013,02,27,13,05,11.30
2013,02,27,13,06,9.60
2013,02,27,13,07,9.60
2013,02,27,13,08,8.10
2013,02,27,13,09,11.30
2013,02,27,13,10,16.10
2013,02,27,13,11,6.40
2013,02,27,13,12,11.30
2013,02,27,13,13,11.30
2013,02,27,13,14,11.30
2013,02,27,13,15,9.60
2013,02,27,13,16,6.40
2013,02,27,13,17,9.60
2013,02,27,13,18,6.40
2013,02,27,13,19,8.10
2013,02,27,13,20,6.40
2013,02,27,13,21,8.10
2013,02,27,13,22,6.40
2013,02,27,13,23,12.90
2013,02,27,13,24,6.40
2013,02,27,13,25,4.80
2013,02,27,13,26,4.80
2013,02,27,13,27,8.10
2013,02,27,13,28,8.10
2013,02,27,13,29,3.20
2013,02,27,13,30,6.40
2013,02,27,13,31,8.10
2013,02,27,13,32,6.40
2013,02,27,13,33,8.10
2013,02,27,13,34,3.20
2013,02,27,13,35,6.40
2013,02,27,13,36,8.10
2013,02,27,13,37,9.60
2013,02,27,13,38,6.40
2013,02,27,13,39,8.10
2013,02,27,13,40,4.80
2013,02,27,13,41,8.10
2013,02,27,13,42,8.10
2013,02,27,13,43,4.80
2013,02,27,13,44,6.40
2013,02,27,13,45,6.40
2013,02,27,13,46,6.40
2013,02,27,13,47,6.40
2013,02,27,13,48,11.30
2013,02,27,13,49,11.30
2013,02,27,13,50,6.40
2013,02,27,13,51,8.10
2013,02,27,13,52,8.10
2013,02,27,13,53,6.40
2013,02,27,13,54,4.80
2013,02,27,13,55,8.10
2013,02,27,13,56,6.40
2013,02,27,13,57,8.10
2013,02,27,13,58,6.40
2013,02,27,13,59,4.80
2013,02,27,14,00,3.20
2013,02,27,14,01,8.10
2013,02,27,14,02,4.80
2013,02,27,14,03,4.80
2013,02,27,14,04,4.80
2013,02,27,14,05,8.10
2013,02,27,14,06,4.80
2013,02,27,14,07,3.20
2013,02,27,14,08,3.20
2013,02,27,14,09,4.80
2013,02,27,14,10,6.40
2013,02,27,14,11,6.40
2013,02,27,14,12,8.10
2013,02,27,14,13,6.40
2013,02,27,14,14,9.60
2013,02,27,14,15,8.10
2013,02,27,14,16,6.40
2013,02,27,14,17,6.40
2013,02,27,14,18,6.40
2013,02,27,14,19,4.80
2013,02,27,14,20,3.20
2013,02,27,14,21,3.20
2013,02,27,14,22,4.80
2013,02,27,14,23,4.80
2013,02,27,14,24,4.80
2013,02,27,14,25,4.80
2013,02,27,14,26,6.40
2013,02,27,14,27,4.80
2013,02,27,14,28,6.40
2013,02,27,14,29,6.40
2013,02,27,14,30,8.10
2013,02,27,14,31,8.10
2013,02,27,14,32,9.60
2013,02,27,14,33,9.60
2013,02,27,14,34,8.10
2013,02,27,14,35,9.60
2013,02,27,14,36,11.30
2013,02,27,14,37,9.60
2013,02,27,14,38,9.60
2013,02,27,14,39,9.60
2013,02,27,14,40,14.50
2013,02,27,14,41,11.30
2013,02,27,14,42,11.30
2013,02,27,14,43,8.10
2013,02,27,14,44,4.80
2013,02,27,14,45,9.60
2013,02,27,14,46,6.40
2013,02,27,14,47,8.10
2013,02,27,14,48,9.60
2013,02,27,14,49,6.40
2013,02,27,14,50,6.40
2013,02,27,14,51,6.40
2013,02,27,14,52,8.10
2013,02,27,14,53,8.10
2013,02,27,14,54,9.60
2013,02,27,14,55,8.10
2013,02,27,14,56,12.90
2013,02,27,14,57,16.10
2013,02,27,14,58,9.60
2013,02,27,14,59,9.60
2013,02,27,15,00,11.30
2013,02,27,15,01,8.10
2013,02,27,15,02,9.60
2013,02,27,15,03,9.60
2013,02,27,15,04,12.90
2013,02,27,15,05,11.30
2013,02,27,15,06,9.60
2013,02,27,15,07,12.90
2013,02,27,15,08,9.60
2013,02,27,15,09,8.10
2013,02,27,15,10,9.60
2013,02,27,15,11,11.30
2013,02,27,15,12,11.30
2013,02,27,15,13,8.10
2013,02,27,15,14,9.60
2013,02,27,15,15,14.50
2013,02,27,15,16,8.10
2013,02,27,15,17,9.60
2013,02,27,15,18,8.10
2013,02,27,15,19,8.10
2013,02,27,15,20,6.40
2013,02,27,15,21,6.40
2013,02,27,15,22,8.10
2013,02,27,15,23,11.30
2013,02,27,15,24,8.10
2013,02,27,15,25,11.30
2013,02,27,15,26,8.10
2013,02,27,15,27,9.60
2013,02,27,15,28,11.30
2013,02,27,15,29,11.30
2013,02,27,15,30,6.40
2013,02,27,15,31,8.10
2013,02,27,15,32,8.10
2013,02,27,15,33,6.40
2013,02,27,15,34,11.30
2013,02,27,15,35,6.40
2013,02,27,15,36,6.40
2013,02,27,15,37,6.40
2013,02,27,15,38,9.60
2013,02,27,15,39,8.10
2013,02,27,15,40,6.40
2013,02,27,15,41,9.60
2013,02,27,15,42,6.40
2013,02,27,15,43,8.10
2013,02,27,15,44,9.60
2013,02,27,15,45,8.10
2013,02,27,15,46,9.60
2013,02,27,15,47,6.40
2013,02,27,15,48,8.10
2013,02,27,15,49,4.80
2013,02,27,15,50,4.80
2013,02,27,15,51,8.10
2013,02,27,15,52,9.60
2013,02,27,15,53,9.60
2013,02,27,15,54,9.60
2013,02,27,15,55,6.40
2013,02,27,15,56,8.10
2013,02,27,15,57,8.10
2013,02,27,15,58,4.80
2013,02,27,15,59,8.10
2013,02,27,16,00,3.20
2013,02,27,16,01,4.80
2013,02,27,16,02,8.10
2013,02,27,16,03,6.40
2013,02,27,16,04,8.10
2013,02,27,16,05,8.10
2013,02,27,16,06,6.40
2013,02,27,16,07,4.80
2013,02,27,16,08,4.80
2013,02,27,16,09,4.80
2013,02,27,16,10,4.80
2013,02,27,16,11,4.80
2013,02,27,16,12,6.40
2013,02,27,16,13,4.80
2013,02,27,16,14,4.80
2013,02,27,16,15,4.80
2013,02,27,16,16,3.20
2013,02,27,16,17,4.80
2013,02,27,16,18,3.20
2013,02,27,16,19,1.60
2013,02,27,16,20,6.40
2013,02,27,16,21,4.80
2013,02,27,16,22,3.20
2013,02,27,16,23,4.80
2013,02,27,16,24,4.80
2013,02,27,16,25,3.20
2013,02,27,16,26,3.20
2013,02,27,16,27,1.60
2013,02,27,16,28,1.60
2013,02,27,16,29,1.60
2013,02,27,16,30,1.60
2013,02,27,16,31,1.60
2013,02,27,16,32,1.60
2013,02,27,16,33,1.60
2013,02,27,16,39,3.20
2013,02,27,16,40,3.20
2013,02,27,16,41,4.80
2013,02,27,16,42,4.80
2013,02,27,16,43,4.80
2013,02,27,16,44,4.80
2013,02,27,16,45,4.80
2013,02,27,16,46,1.60
2013,02,27,16,47,3.20
2013,02,27,16,48,3.20
2013,02,27,16,49,3.20
2013,02,27,16,50,4.80
2013,02,27,16,51,4.80
2013,02,27,16,52,3.20
2013,02,27,16,53,4.80
2013,02,27,16,54,3.20
2013,02,27,16,55,3.20
2013,02,27,16,56,3.20
2013,02,27,16,57,3.20
2013,02,27,16,58,3.20
2013,02,27,16,59,3.20
2013,02,27,17,00,3.20
2013,02,27,17,01,4.80
2013,02,27,17,02,4.80
2013,02,27,17,03,4.80
2013,02,27,17,04,4.80
2013,02,27,17,05,4.80
2013,02,27,17,06,4.80
2013,02,27,17,07,6.40
2013,02,27,17,08,3.20
2013,02,27,17,09,4.80
2013,02,27,17,10,4.80
2013,02,27,17,11,4.80
2013,02,27,17,12,3.20
2013,02,27,17,13,4.80
2013,02,27,17,14,3.20
2013,02,27,17,15,3.20
2013,02,27,17,16,4.80
2013,02,27,17,17,3.20
2013,02,27,17,18,3.20
2013,02,27,17,19,1.60
2013,02,27,17,20,3.20
2013,02,27,17,21,3.20
2013,02,27,17,22,3.20
2013,02,27,17,23,3.20
2013,02,27,17,24,3.20
2013,02,27,17,25,1.60
2013,02,27,17,26,3.20
2013,02,27,17,27,1.60
2013,02,27,17,28,1.60
2013,02,27,17,29,1.60
2013,02,27,17,30,1.60
2013,02,27,17,31,1.60
2013,02,27,17,32,1.60
2013,02,27,17,33,1.60
2013,02,27,17,35,1.60
2013,02,27,17,36,1.60
2013,02,27,17,37,1.60
2013,02,27,17,38,1.60
2013,02,27,17,39,3.20
2013,02,27,17,40,3.20
2013,02,27,17,41,3.20
2013,02,27,17,42,3.20
2013,02,27,17,43,4.80
2013,02,27,17,44,3.20
2013,02,27,17,45,3.20
2013,02,27,17,46,6.40
2013,02,27,17,47,6.40
2013,02,27,17,48,4.80
2013,02,27,17,49,3.20
2013,02,27,17,50,3.20
2013,02,27,17,51,3.20
2013,02,27,17,52,3.20
2013,02,27,17,53,3.20
2013,02,27,17,54,3.20
2013,02,27,17,55,4.80
2013,02,27,17,56,3.20
2013,02,27,17,57,3.20
2013,02,27,17,58,3.20
2013,02,27,17,59,3.20
2013,02,27,18,00,3.20
2013,02,27,18,01,3.20
2013,02,27,18,02,4.80
2013,02,27,18,03,4.80
2013,02,27,18,04,3.20
2013,02,27,18,05,3.20
2013,02,27,18,06,3.20
2013,02,27,18,07,3.20
2013,02,27,18,08,3.20
2013,02,27,18,09,3.20
2013,02,27,18,10,3.20
2013,02,27,18,11,3.20
2013,02,27,18,12,3.20
2013,02,27,18,15,3.20
2013,02,27,18,16,3.20
2013,02,27,18,17,4.80
2013,02,27,18,18,3.20
2013,02,27,18,19,3.20
2013,02,27,18,20,3.20
2013,02,27,18,21,3.20
2013,02,27,18,22,1.60
2013,02,27,18,23,1.60
2013,02,27,18,24,1.60
2013,02,27,18,25,3.20
2013,02,27,18,26,3.20
2013,02,27,18,27,1.60
2013,02,27,18,28,1.60
2013,02,27,18,29,1.60
2013,02,27,18,30,3.20
2013,02,27,18,31,3.20
2013,02,27,18,32,1.60
2013,02,27,18,33,1.60
2013,02,27,18,34,3.20
2013,02,27,18,35,3.20
2013,02,27,18,36,3.20
2013,02,27,18,37,3.20
2013,02,27,18,38,3.20
2013,02,27,18,39,3.20
2013,02,27,18,40,1.60
2013,02,27,18,41,1.60
2013,02,27,18,42,3.20
2013,02,27,18,43,4.80
2013,02,27,18,44,3.20
2013,02,27,18,45,3.20
2013,02,27,18,46,3.20
2013,02,27,18,47,6.40
2013,02,27,18,48,4.80
2013,02,27,18,49,3.20
2013,02,27,18,50,4.80
2013,02,27,18,51,4.80
2013,02,27,18,52,4.80
2013,02,27,18,53,4.80
2013,02,27,18,54,6.40
2013,02,27,18,55,6.40
2013,02,27,18,56,6.40
2013,02,27,18,57,6.40
2013,02,27,18,58,6.40
2013,02,27,18,59,4.80
2013,02,27,19,00,6.40
2013,02,27,19,01,4.80
2013,02,27,19,02,6.40
2013,02,27,19,03,6.40
2013,02,27,19,04,6.40
2013,02,27,19,05,6.40
2013,02,27,19,06,4.80
2013,02,27,19,07,4.80
2013,02,27,19,08,8.10
2013,02,27,19,09,8.10
2013,02,27,19,10,9.60
2013,02,27,19,11,4.80
2013,02,27,19,12,4.80
2013,02,27,19,13,6.40
2013,02,27,19,14,11.30
2013,02,27,19,15,3.20
2013,02,27,19,16,4.80
2013,02,27,19,17,4.80
2013,02,27,19,18,4.80
2013,02,27,19,19,4.80
2013,02,27,19,20,3.20
2013,02,27,19,21,3.20
2013,02,27,19,22,4.80
2013,02,27,19,23,4.80
2013,02,27,19,24,3.20
2013,02,27,19,25,3.20
2013,02,27,19,26,3.20
2013,02,27,19,27,3.20
2013,02,27,19,28,3.20
2013,02,27,19,29,4.80
2013,02,27,19,30,3.20
2013,02,27,19,31,1.60